METAR Formatted Surface Weather Observation
Issued by NWS

Home | Current Version | Previous Version | Text Only | Print | Product List | Glossary On
Versions: 1 2 3 4 5 6 7 8 9 10 11 12 13 14 15 16 17 18 19 20 21 22 23 24 25 26 27 28 29 30 31 32 33 34 35 36 37 38 39 40 41 42 43 44 45 46 47 48 49 50
243
SAUS45 KSLC 090750
MTRU16
METAR KU16 090658Z AUTO 00000KT 4SM BR CLR M04/M05 A3061
 RMK AO2 SLP970 T10391050 $
02/09/16 01:31:26  SPECI KU16 090731Z AUTO 00000KT 2 1/2SM BR CLR M04/M05
A3061 RMK AO2 $



USA.gov is the U.S. government's official web portal to all federal, state and local government web resources and services.